CKK728 WIII-WIMM

Flight info

Callsign CKK728
Flight time 1h 51m
Altitude 32000
Route GOMEL T10 AKPER
Aircraft B77L/H-SDE1E2E3FGHIJ2J3J4J5M1RWXY/LB1D1

Departure

Time 2026-05-06 15:47
Airport Soekarno-Hatta International Airport (WIII)

Arrival

Time 2026-05-06 17:38
Airport Kualanamu International Airport (WIMM)
Time Latitude Longitude Altitude Speed Heading
2026-05-06 15:12 -6.12804 106.66184 42 ft 0 kts 69°
2026-05-06 15:33 -6.12812 106.66165 41 ft 4 kts 68°
2026-05-06 15:33 -6.12821 106.66142 38 ft 4 kts 68°
2026-05-06 15:33 -6.12828 106.66123 42 ft 4 kts 86°
2026-05-06 15:33 -6.12827 106.66106 42 ft 4 kts 132°
2026-05-06 15:34 -6.12809 106.66095 39 ft 4 kts 159°
2026-05-06 15:34 -6.12795 106.66089 40 ft 0 kts 159°
2026-05-06 15:37 -6.12809 106.66095 42 ft 4 kts 159°
2026-05-06 15:37 -6.12835 106.66105 42 ft 4 kts 159°
2026-05-06 15:38 -6.12862 106.66116 42 ft 4 kts 158°
2026-05-06 15:38 -6.12897 106.66130 42 ft 7 kts 158°
2026-05-06 15:38 -6.12946 106.66149 42 ft 8 kts 158°
2026-05-06 15:38 -6.12999 106.66170 42 ft 9 kts 158°
2026-05-06 15:39 -6.13057 106.66194 42 ft 9 kts 156°
2026-05-06 15:39 -6.13118 106.66220 42 ft 10 kts 159°
2026-05-06 15:39 -6.13184 106.66246 43 ft 10 kts 159°
2026-05-06 15:39 -6.13251 106.66274 43 ft 10 kts 150°
2026-05-06 15:40 -6.13270 106.66338 43 ft 10 kts 73°
2026-05-06 15:40 -6.13244 106.66407 43 ft 10 kts 68°
2026-05-06 15:40 -6.13218 106.66474 43 ft 10 kts 68°
2026-05-06 15:40 -6.13188 106.66549 43 ft 14 kts 68°
2026-05-06 15:41 -6.13144 106.66659 43 ft 18 kts 68°
2026-05-06 15:41 -6.13097 106.66778 43 ft 18 kts 68°
2026-05-06 15:41 -6.13049 106.66895 43 ft 18 kts 68°
2026-05-06 15:41 -6.13003 106.67013 42 ft 18 kts 69°
2026-05-06 15:42 -6.12956 106.67129 43 ft 18 kts 68°
2026-05-06 15:42 -6.12911 106.67243 43 ft 16 kts 68°
2026-05-06 15:42 -6.12877 106.67329 43 ft 12 kts 68°
2026-05-06 15:42 -6.12875 106.67384 43 ft 4 kts 113°
2026-05-06 15:43 -6.12881 106.67393 41 ft 0 kts 122°
2026-05-06 15:43 -6.12881 106.67394 42 ft 1 kts 122°
2026-05-06 15:43 -6.12892 106.67408 43 ft 4 kts 130°
2026-05-06 15:44 -6.12921 106.67429 44 ft 6 kts 156°
2026-05-06 15:44 -6.12964 106.67426 44 ft 6 kts 198°
2026-05-06 15:44 -6.13019 106.67403 44 ft 10 kts 207°
2026-05-06 15:44 -6.13060 106.67353 44 ft 7 kts 245°
2026-05-06 15:45 -6.13067 106.67337 44 ft 0 kts 247°
2026-05-06 15:46 -6.13069 106.67331 44 ft 7 kts 247°
2026-05-06 15:46 -6.13157 106.67117 44 ft 68 kts 248°
2026-05-06 15:46 -6.13418 106.66461 47 ft 132 kts 248°
2026-05-06 15:46 -6.13677 106.65815 44 ft 167 kts 248°
2026-05-06 15:47 -6.14180 106.64611 146 ft 198 kts 249°
2026-05-06 15:47 -6.14628 106.63309 759 ft 194 kts 250°
2026-05-06 15:47 -6.15122 106.62067 1380 ft 192 kts 245°
2026-05-06 15:47 -6.15846 106.60352 1882 ft 214 kts 246°
2026-05-06 15:48 -6.16449 106.58892 2097 ft 239 kts 247°
2026-05-06 15:48 -6.16894 106.57799 2221 ft 259 kts 247°
2026-05-06 15:48 -6.17587 106.56082 2536 ft 273 kts 247°
2026-05-06 15:48 -6.18303 106.54302 2500 ft 274 kts 247°
2026-05-06 15:49 -6.19014 106.52526 2502 ft 274 kts 248°
2026-05-06 15:49 -6.19723 106.50744 2703 ft 276 kts 248°
2026-05-06 15:49 -6.20310 106.49272 3310 ft 279 kts 248°
2026-05-06 15:49 -6.21032 106.47459 4125 ft 279 kts 248°
2026-05-06 15:50 -6.21740 106.45626 4840 ft 282 kts 252°
2026-05-06 15:50 -6.21899 106.43669 5336 ft 289 kts 284°
2026-05-06 15:50 -6.20997 106.41889 6039 ft 287 kts 315°
2026-05-06 15:50 -6.19410 106.40723 6737 ft 284 kts 336°
2026-05-06 15:51 -6.17556 106.40036 7378 ft 285 kts 346°
2026-05-06 15:51 -6.15630 106.39475 8006 ft 290 kts 346°
2026-05-06 15:51 -6.13684 106.38914 8719 ft 292 kts 346°
2026-05-06 15:51 -6.11724 106.38343 9400 ft 295 kts 346°
2026-05-06 15:52 -6.09735 106.37755 10043 ft 299 kts 345°
2026-05-06 15:52 -6.07708 106.37153 10458 ft 313 kts 345°
2026-05-06 15:52 -6.05541 106.36511 10618 ft 336 kts 345°
2026-05-06 15:52 -6.03221 106.35823 10783 ft 359 kts 345°
2026-05-06 15:53 -6.00793 106.35102 11134 ft 374 kts 345°
2026-05-06 15:53 -5.98251 106.34346 11692 ft 384 kts 345°
2026-05-06 15:53 -5.95665 106.33575 12413 ft 389 kts 345°
2026-05-06 15:53 -5.93054 106.32797 13192 ft 393 kts 345°
2026-05-06 15:54 -5.90413 106.32010 13900 ft 398 kts 345°
2026-05-06 15:54 -5.87739 106.31214 14560 ft 402 kts 345°
2026-05-06 15:54 -5.85060 106.30416 15246 ft 405 kts 345°
2026-05-06 15:54 -5.82339 106.29606 15952 ft 408 kts 345°
2026-05-06 15:55 -5.79607 106.28793 16646 ft 411 kts 345°
2026-05-06 15:55 -5.76849 106.27973 17288 ft 415 kts 345°
2026-05-06 15:55 -5.74099 106.27101 17838 ft 414 kts 339°
2026-05-06 15:55 -5.71598 106.25622 18100 ft 421 kts 322°
2026-05-06 15:56 -5.69363 106.23687 18387 ft 430 kts 320°
2026-05-06 15:56 -5.67064 106.21735 18917 ft 432 kts 321°
2026-05-06 15:56 -5.64763 106.19844 19558 ft 432 kts 322°
2026-05-06 15:56 -5.62383 106.17924 20137 ft 434 kts 322°
2026-05-06 15:57 -5.60041 106.16052 20649 ft 438 kts 322°
2026-05-06 15:57 -5.57638 106.14138 20892 ft 441 kts 322°
2026-05-06 15:57 -5.55234 106.12225 20878 ft 442 kts 322°
2026-05-06 15:57 -5.52826 106.10307 20883 ft 442 kts 322°
2026-05-06 15:58 -5.50421 106.08390 20880 ft 441 kts 322°
2026-05-06 15:58 -5.48016 106.06472 20882 ft 441 kts 322°
2026-05-06 15:58 -5.45618 106.04560 20885 ft 441 kts 322°
2026-05-06 15:58 -5.43201 106.02634 21191 ft 445 kts 322°
2026-05-06 15:59 -5.40770 106.00700 21749 ft 447 kts 322°
2026-05-06 15:59 -5.38314 105.98751 22301 ft 449 kts 323°
2026-05-06 15:59 -5.35882 105.96825 22771 ft 452 kts 323°
2026-05-06 15:59 -5.33390 105.94851 23207 ft 457 kts 323°
2026-05-06 16:00 -5.30875 105.92857 23601 ft 460 kts 323°
2026-05-06 16:00 -5.28381 105.90880 23972 ft 463 kts 323°
2026-05-06 16:00 -5.25841 105.88865 24380 ft 465 kts 323°
2026-05-06 16:00 -5.23291 105.86842 24769 ft 468 kts 323°
2026-05-06 16:01 -5.20733 105.84814 25171 ft 470 kts 323°
2026-05-06 16:01 -5.18160 105.82776 25568 ft 472 kts 323°
2026-05-06 16:01 -5.15522 105.80790 25942 ft 474 kts 325°
2026-05-06 16:01 -5.12820 105.78870 26297 ft 477 kts 326°
2026-05-06 16:02 -5.10084 105.76966 26647 ft 480 kts 326°
2026-05-06 16:02 -5.07357 105.75073 27010 ft 482 kts 326°
2026-05-06 16:02 -5.04594 105.73142 27364 ft 485 kts 326°
2026-05-06 16:02 -5.01828 105.71195 27730 ft 487 kts 326°
2026-05-06 16:03 -4.99053 105.69231 28107 ft 489 kts 326°
2026-05-06 16:03 -4.96273 105.67256 28481 ft 492 kts 326°
2026-05-06 16:03 -4.93472 105.65263 28823 ft 494 kts 326°
2026-05-06 16:03 -4.90661 105.63262 29151 ft 497 kts 326°
2026-05-06 16:04 -4.87828 105.61244 29489 ft 500 kts 326°
2026-05-06 16:04 -4.84988 105.59224 29840 ft 502 kts 326°
2026-05-06 16:04 -4.82128 105.57190 30170 ft 503 kts 326°
2026-05-06 16:04 -4.79275 105.55161 30457 ft 505 kts 326°
2026-05-06 16:05 -4.76397 105.53116 30755 ft 506 kts 326°
2026-05-06 16:05 -4.73518 105.51069 31086 ft 506 kts 326°
2026-05-06 16:05 -4.70692 105.49061 31484 ft 504 kts 326°
2026-05-06 16:05 -4.67803 105.47008 31875 ft 503 kts 326°
2026-05-06 16:06 -4.62112 105.42964 31880 ft 503 kts 326°
2026-05-06 16:06 -4.56409 105.38913 31877 ft 501 kts 326°
2026-05-06 16:07 -4.50711 105.34867 31879 ft 502 kts 326°
2026-05-06 16:07 -4.45006 105.30816 31879 ft 502 kts 326°
2026-05-06 16:08 -4.39344 105.26796 31878 ft 502 kts 326°
2026-05-06 16:08 -4.33636 105.22744 31873 ft 502 kts 326°
2026-05-06 16:09 -4.27918 105.18686 31877 ft 502 kts 326°
2026-05-06 16:09 -4.22249 105.14663 31876 ft 502 kts 326°
2026-05-06 16:10 -4.16543 105.10614 31877 ft 501 kts 326°
2026-05-06 16:10 -4.10868 105.06580 31877 ft 502 kts 324°
2026-05-06 16:11 -4.05591 105.01992 31880 ft 503 kts 317°
2026-05-06 16:11 -4.00518 104.97158 31855 ft 501 kts 317°
2026-05-06 16:12 -3.95431 104.92360 31867 ft 503 kts 317°
2026-05-06 16:12 -3.90315 104.87569 31875 ft 503 kts 317°
2026-05-06 16:13 -3.85202 104.82790 31880 ft 503 kts 317°
2026-05-06 16:13 -3.80089 104.78009 31881 ft 503 kts 317°
2026-05-06 16:14 -3.74997 104.73247 31879 ft 503 kts 317°
2026-05-06 16:14 -3.69875 104.68456 31877 ft 503 kts 317°
2026-05-06 16:15 -3.64780 104.63693 31881 ft 503 kts 317°
2026-05-06 16:15 -3.59653 104.58899 31879 ft 503 kts 318°
2026-05-06 16:16 -3.54573 104.54151 31879 ft 503 kts 318°
2026-05-06 16:16 -3.49460 104.49372 31881 ft 503 kts 318°
2026-05-06 16:17 -3.44340 104.44588 31878 ft 502 kts 318°
2026-05-06 16:17 -3.39246 104.39829 31882 ft 502 kts 318°
2026-05-06 16:18 -3.34119 104.35040 31882 ft 502 kts 318°
2026-05-06 16:18 -3.29040 104.30296 31884 ft 502 kts 318°
2026-05-06 16:19 -3.23922 104.25517 31881 ft 502 kts 318°
2026-05-06 16:19 -3.18816 104.20749 31883 ft 502 kts 318°
2026-05-06 16:20 -3.13718 104.15990 31884 ft 502 kts 318°
2026-05-06 16:20 -3.08619 104.11230 31884 ft 501 kts 318°
2026-05-06 16:21 -3.03522 104.06473 31881 ft 501 kts 318°
2026-05-06 16:21 -2.98415 104.01707 31884 ft 501 kts 318°
2026-05-06 16:22 -2.93343 103.96974 31884 ft 501 kts 318°
2026-05-06 16:22 -2.88227 103.92201 31882 ft 501 kts 318°
2026-05-06 16:23 -2.83128 103.87445 31882 ft 501 kts 318°
2026-05-06 16:23 -2.78051 103.82709 31881 ft 501 kts 318°
2026-05-06 16:24 -2.72934 103.77937 31884 ft 501 kts 318°
2026-05-06 16:24 -2.67852 103.73198 31885 ft 502 kts 318°
2026-05-06 16:25 -2.62747 103.68438 31886 ft 502 kts 318°
2026-05-06 16:25 -2.57651 103.63686 31887 ft 502 kts 318°
2026-05-06 16:26 -2.52545 103.58927 31888 ft 502 kts 318°
2026-05-06 16:26 -2.47439 103.54167 31888 ft 502 kts 318°
2026-05-06 16:27 -2.42324 103.49399 31887 ft 502 kts 318°
2026-05-06 16:27 -2.37207 103.44630 31891 ft 502 kts 318°
2026-05-06 16:28 -2.32094 103.39864 31891 ft 503 kts 318°
2026-05-06 16:28 -2.27008 103.35119 31893 ft 503 kts 318°
2026-05-06 16:29 -2.21894 103.30343 31894 ft 503 kts 318°
2026-05-06 16:29 -2.16777 103.25563 31894 ft 503 kts 318°
2026-05-06 16:30 -2.13356 103.22369 31896 ft 503 kts 318°
2026-05-06 16:30 -2.06539 103.16004 31901 ft 503 kts 318°
2026-05-06 16:31 -2.01422 103.11226 31892 ft 503 kts 318°
2026-05-06 16:31 -1.96299 103.06444 31898 ft 504 kts 318°
2026-05-06 16:32 -1.91198 103.01683 31896 ft 504 kts 318°
2026-05-06 16:32 -1.86076 102.96902 31897 ft 504 kts 318°
2026-05-06 16:33 -1.80951 102.92119 31901 ft 504 kts 318°
2026-05-06 16:34 -1.74130 102.85754 31898 ft 504 kts 318°
2026-05-06 16:34 -1.68137 102.80162 31897 ft 504 kts 318°
2026-05-06 16:35 -1.63881 102.76189 31898 ft 504 kts 318°
2026-05-06 16:35 -1.57923 102.70630 31900 ft 504 kts 318°
2026-05-06 16:36 -1.53630 102.66624 31900 ft 504 kts 317°
2026-05-06 16:36 -1.48509 102.61842 31898 ft 504 kts 317°
2026-05-06 16:37 -1.43422 102.57090 31896 ft 504 kts 317°
2026-05-06 16:37 -1.38300 102.52304 31898 ft 504 kts 317°
2026-05-06 16:38 -1.33174 102.47515 31895 ft 504 kts 317°
2026-05-06 16:38 -1.28101 102.42776 31893 ft 504 kts 317°
2026-05-06 16:39 -1.22972 102.37985 31893 ft 505 kts 317°
2026-05-06 16:39 -1.17847 102.33198 31890 ft 504 kts 317°
2026-05-06 16:40 -1.12725 102.28415 31891 ft 504 kts 317°
2026-05-06 16:40 -1.07595 102.23624 31887 ft 504 kts 317°
2026-05-06 16:41 -1.02467 102.18835 31886 ft 504 kts 317°
2026-05-06 16:41 -0.97376 102.14081 31884 ft 504 kts 317°
2026-05-06 16:42 -0.92247 102.09291 31883 ft 504 kts 317°
2026-05-06 16:42 -0.87129 102.04512 31881 ft 504 kts 317°
2026-05-06 16:43 -0.82000 101.99723 31876 ft 503 kts 317°
2026-05-06 16:43 -0.76906 101.94967 31877 ft 503 kts 317°
2026-05-06 16:44 -0.71789 101.90189 31876 ft 503 kts 317°
2026-05-06 16:44 -0.66674 101.85414 31872 ft 503 kts 317°
2026-05-06 16:45 -0.61554 101.80634 31871 ft 503 kts 317°
2026-05-06 16:45 -0.56433 101.75853 31869 ft 503 kts 317°
2026-05-06 16:46 -0.51341 101.71099 31868 ft 504 kts 317°
2026-05-06 16:46 -0.46207 101.66307 31867 ft 504 kts 317°
2026-05-06 16:47 -0.41086 101.61527 31864 ft 504 kts 317°
2026-05-06 16:47 -0.35954 101.56735 31862 ft 504 kts 317°
2026-05-06 16:48 -0.30828 101.51950 31862 ft 504 kts 317°
2026-05-06 16:48 -0.25708 101.47172 31863 ft 504 kts 317°
2026-05-06 16:49 -0.20616 101.42418 31862 ft 504 kts 317°
2026-05-06 16:49 -0.15497 101.37639 31857 ft 504 kts 317°
2026-05-06 16:50 -0.10374 101.32858 31857 ft 504 kts 317°
2026-05-06 16:50 -0.05236 101.28062 31857 ft 504 kts 317°
2026-05-06 16:51 -0.00112 101.23278 31853 ft 504 kts 317°
2026-05-06 16:51 0.05015 101.18493 31860 ft 504 kts 317°
2026-05-06 16:52 0.10138 101.13711 31857 ft 504 kts 317°
2026-05-06 16:52 0.15227 101.08961 31857 ft 503 kts 317°
2026-05-06 16:53 0.20343 101.04185 31859 ft 503 kts 317°
2026-05-06 16:53 0.25469 100.99400 31859 ft 504 kts 317°
2026-05-06 16:54 0.30594 100.94616 31861 ft 504 kts 317°
2026-05-06 16:54 0.35714 100.89837 31865 ft 504 kts 317°
2026-05-06 16:55 0.40839 100.85053 31867 ft 504 kts 317°
2026-05-06 16:55 0.45968 100.80265 31866 ft 504 kts 317°
2026-05-06 16:56 0.51051 100.75520 31866 ft 503 kts 317°
2026-05-06 16:56 0.56171 100.70740 31876 ft 503 kts 317°
2026-05-06 16:57 0.61296 100.65955 31868 ft 503 kts 317°
2026-05-06 16:57 0.66403 100.61187 31870 ft 502 kts 317°
2026-05-06 16:58 0.71508 100.56421 31869 ft 503 kts 317°
2026-05-06 16:58 0.76590 100.51676 31869 ft 503 kts 317°
2026-05-06 16:59 0.81703 100.46903 31871 ft 503 kts 317°
2026-05-06 16:59 0.86821 100.42124 31870 ft 503 kts 317°
2026-05-06 17:00 0.91929 100.37355 31876 ft 502 kts 317°
2026-05-06 17:00 0.97041 100.32581 31874 ft 502 kts 317°
2026-05-06 17:01 1.02153 100.27807 31876 ft 502 kts 317°
2026-05-06 17:01 1.07221 100.23073 31879 ft 502 kts 317°
2026-05-06 17:02 1.12328 100.18304 31876 ft 502 kts 317°
2026-05-06 17:02 1.17444 100.13526 31879 ft 502 kts 317°
2026-05-06 17:03 1.22549 100.08758 31879 ft 502 kts 317°
2026-05-06 17:03 1.27619 100.04022 31874 ft 502 kts 317°
2026-05-06 17:04 1.32745 99.99233 31882 ft 502 kts 317°
2026-05-06 17:04 1.37827 99.94486 31891 ft 502 kts 317°
2026-05-06 17:05 1.42936 99.89713 31897 ft 502 kts 317°
2026-05-06 17:05 1.48036 99.84947 31884 ft 501 kts 317°
2026-05-06 17:06 1.53106 99.80210 31891 ft 501 kts 317°
2026-05-06 17:06 1.58198 99.75451 31899 ft 501 kts 317°
2026-05-06 17:07 1.63304 99.70679 31904 ft 501 kts 317°
2026-05-06 17:07 1.68411 99.65905 31911 ft 501 kts 317°
2026-05-06 17:08 1.73471 99.61175 31916 ft 502 kts 317°
2026-05-06 17:08 1.78692 99.56565 31912 ft 499 kts 328°
2026-05-06 17:09 1.84861 99.53394 31935 ft 500 kts 335°
2026-05-06 17:09 1.91034 99.50435 31906 ft 476 kts 334°
2026-05-06 17:09 1.93952 99.48978 31926 ft 460 kts 334°
2026-05-06 17:10 1.96765 99.47546 31912 ft 448 kts 334°
2026-05-06 17:10 2.02248 99.44721 31956 ft 445 kts 333°
2026-05-06 17:11 2.07772 99.41871 31963 ft 451 kts 333°
2026-05-06 17:11 2.13348 99.38996 31956 ft 451 kts 333°
2026-05-06 17:12 2.18922 99.36125 31953 ft 450 kts 333°
2026-05-06 17:12 2.24488 99.33259 31954 ft 449 kts 333°
2026-05-06 17:13 2.30048 99.30394 31953 ft 450 kts 333°
2026-05-06 17:13 2.35620 99.27523 31957 ft 450 kts 333°
2026-05-06 17:14 2.41160 99.24668 31950 ft 450 kts 333°
2026-05-06 17:14 2.46975 99.22429 31967 ft 446 kts 350°
2026-05-06 17:15 2.53129 99.21381 31954 ft 450 kts 351°
2026-05-06 17:15 2.59222 99.20295 31534 ft 445 kts 350°
2026-05-06 17:15 2.62255 99.19717 31097 ft 442 kts 350°
2026-05-06 17:16 2.65260 99.19131 30654 ft 439 kts 350°
2026-05-06 17:16 2.68259 99.18539 30212 ft 437 kts 350°
2026-05-06 17:16 2.71242 99.17949 29730 ft 435 kts 350°
2026-05-06 17:16 2.74206 99.17364 29249 ft 432 kts 350°
2026-05-06 17:17 2.77148 99.16784 28810 ft 428 kts 350°
2026-05-06 17:17 2.80056 99.16211 28371 ft 425 kts 350°
2026-05-06 17:17 2.82946 99.15642 27939 ft 422 kts 350°
2026-05-06 17:17 2.85814 99.15078 27497 ft 419 kts 350°
2026-05-06 17:18 2.88633 99.14523 27069 ft 416 kts 350°
2026-05-06 17:18 2.91462 99.13967 26649 ft 413 kts 350°
2026-05-06 17:18 2.94277 99.13413 26230 ft 411 kts 350°
2026-05-06 17:18 2.97036 99.12738 25742 ft 406 kts 339°
2026-05-06 17:19 2.99436 99.11257 25159 ft 410 kts 316°
2026-05-06 17:19 3.01380 99.09189 24668 ft 406 kts 314°
2026-05-06 17:19 3.03345 99.07154 24210 ft 406 kts 316°
2026-05-06 17:19 3.05344 99.05165 23874 ft 403 kts 316°
2026-05-06 17:20 3.07334 99.03203 23560 ft 400 kts 316°
2026-05-06 17:20 3.08643 99.01912 23305 ft 398 kts 316°
2026-05-06 17:20 3.11240 98.99342 22525 ft 388 kts 316°
2026-05-06 17:20 3.12509 98.98082 22005 ft 386 kts 316°
2026-05-06 17:21 3.14404 98.96198 21385 ft 380 kts 316°
2026-05-06 17:21 3.16249 98.94362 21000 ft 367 kts 316°
2026-05-06 17:21 3.18595 98.92025 20486 ft 351 kts 316°
2026-05-06 17:21 3.20305 98.90321 20057 ft 342 kts 316°
2026-05-06 17:22 3.21437 98.89195 19696 ft 339 kts 316°
2026-05-06 17:22 3.23102 98.87537 19108 ft 336 kts 316°
2026-05-06 17:22 3.25292 98.85356 18323 ft 333 kts 316°
2026-05-06 17:22 3.26377 98.84277 17914 ft 332 kts 316°
2026-05-06 17:23 3.28006 98.82653 17284 ft 328 kts 316°
2026-05-06 17:23 3.29617 98.81049 16707 ft 324 kts 316°
2026-05-06 17:23 3.31204 98.79478 16213 ft 316 kts 319°
2026-05-06 17:23 3.33003 98.78318 15745 ft 303 kts 345°
2026-05-06 17:24 3.35038 98.78082 15214 ft 291 kts
2026-05-06 17:24 3.36951 98.78637 14667 ft 285 kts 30°
2026-05-06 17:24 3.38536 98.79785 14055 ft 282 kts 48°
2026-05-06 17:24 3.39640 98.81390 13446 ft 279 kts 68°
2026-05-06 17:25 3.40102 98.83252 12805 ft 276 kts 88°
2026-05-06 17:25 3.39886 98.85146 12193 ft 274 kts 105°
2026-05-06 17:25 3.39178 98.86878 11601 ft 272 kts 124°
2026-05-06 17:25 3.37902 98.88267 11006 ft 271 kts 137°
2026-05-06 17:26 3.36533 98.89565 10445 ft 270 kts 134°
2026-05-06 17:26 3.35214 98.90884 9907 ft 268 kts 134°
2026-05-06 17:26 3.33906 98.92198 9357 ft 265 kts 134°
2026-05-06 17:26 3.32608 98.93497 8789 ft 263 kts 135°
2026-05-06 17:27 3.31175 98.94602 8180 ft 261 kts 156°
2026-05-06 17:27 3.29425 98.95032 7616 ft 260 kts 176°
2026-05-06 17:27 3.27635 98.94903 7090 ft 258 kts 193°
2026-05-06 17:27 3.25974 98.94254 6889 ft 257 kts 211°
2026-05-06 17:28 3.24595 98.93108 6657 ft 259 kts 230°
2026-05-06 17:28 3.23688 98.91557 6422 ft 260 kts 251°
2026-05-06 17:28 3.23381 98.89787 6187 ft 260 kts 271°
2026-05-06 17:28 3.23646 98.88007 5960 ft 259 kts 285°
2026-05-06 17:29 3.24333 98.86361 5697 ft 257 kts 306°
2026-05-06 17:29 3.25568 98.85077 5460 ft 256 kts 318°
2026-05-06 17:29 3.26849 98.83850 5203 ft 254 kts 315°
2026-05-06 17:29 3.28090 98.82598 4890 ft 252 kts 315°
2026-05-06 17:30 3.29308 98.81372 4518 ft 250 kts 315°
2026-05-06 17:30 3.30524 98.80152 4066 ft 246 kts 315°
2026-05-06 17:30 3.31741 98.78956 3481 ft 247 kts 316°
2026-05-06 17:30 3.33005 98.77749 3292 ft 255 kts 316°
2026-05-06 17:31 3.34015 98.76787 3201 ft 258 kts 316°
2026-05-06 17:31 3.34852 98.75991 3137 ft 258 kts 316°
2026-05-06 17:31 3.36157 98.74750 3087 ft 258 kts 316°
2026-05-06 17:31 3.37460 98.73508 3104 ft 262 kts 316°
2026-05-06 17:32 3.38783 98.72243 3105 ft 262 kts 316°
2026-05-06 17:32 3.40102 98.70985 3180 ft 263 kts 316°
2026-05-06 17:32 3.41431 98.69721 3158 ft 263 kts 317°
2026-05-06 17:32 3.42965 98.68754 3133 ft 262 kts 343°
2026-05-06 17:33 3.44753 98.68666 3137 ft 260 kts 14°
2026-05-06 17:33 3.46336 98.69488 3097 ft 259 kts 42°
2026-05-06 17:33 3.47562 98.70804 2953 ft 260 kts 49°
2026-05-06 17:33 3.48818 98.72106 2791 ft 259 kts 45°
2026-05-06 17:34 3.50101 98.73366 2635 ft 257 kts 45°
2026-05-06 17:34 3.51348 98.74607 2575 ft 255 kts 45°
2026-05-06 17:34 3.52561 98.75820 2487 ft 234 kts 45°
2026-05-06 17:34 3.53626 98.76886 2401 ft 205 kts 46°
2026-05-06 17:35 3.54585 98.77845 2142 ft 184 kts 46°
2026-05-06 17:35 3.55434 98.78694 1902 ft 160 kts 46°
2026-05-06 17:35 3.56179 98.79440 1716 ft 148 kts 46°
2026-05-06 17:36 3.57638 98.80898 1353 ft 146 kts 45°
2026-05-06 17:36 3.58352 98.81615 1156 ft 145 kts 46°
2026-05-06 17:36 3.59064 98.82326 989 ft 144 kts 45°
2026-05-06 17:36 3.59772 98.83033 816 ft 143 kts 47°
2026-05-06 17:37 3.60477 98.83738 638 ft 144 kts 46°
2026-05-06 17:37 3.61186 98.84445 435 ft 143 kts 46°
2026-05-06 17:37 3.61884 98.85142 261 ft 143 kts 46°
2026-05-06 17:37 3.62583 98.85849 103 ft 142 kts 48°
2026-05-06 17:38 3.63275 98.86562 36 ft 136 kts 47°
2026-05-06 17:38 3.63852 98.87124 37 ft 92 kts 47°
2026-05-06 17:38 3.64181 98.87449 36 ft 39 kts 44°
2026-05-06 17:38 3.64328 98.87593 35 ft 15 kts 46°
2026-05-06 17:39 3.64400 98.87668 36 ft 15 kts 45°
2026-05-06 17:39 3.64452 98.87755 36 ft 15 kts 74°
2026-05-06 17:39 3.64477 98.87851 36 ft 8 kts 76°
2026-05-06 17:39 3.64482 98.87902 36 ft 8 kts 101°
2026-05-06 17:40 3.64458 98.87949 37 ft 8 kts 126°
2026-05-06 17:40 3.64421 98.87986 37 ft 8 kts 136°
2026-05-06 17:40 3.64384 98.88023 37 ft 8 kts 133°
2026-05-06 17:40 3.64349 98.88061 37 ft 8 kts 132°
2026-05-06 17:41 3.64314 98.88100 37 ft 8 kts 132°
2026-05-06 17:41 3.64276 98.88136 37 ft 8 kts 136°
2026-05-06 17:41 3.64233 98.88177 37 ft 9 kts 137°
2026-05-06 17:41 3.64174 98.88203 37 ft 10 kts 183°
2026-05-06 17:42 3.64121 98.88160 37 ft 10 kts 224°
2026-05-06 17:42 3.64069 98.88107 37 ft 11 kts 225°
2026-05-06 17:42 3.64014 98.88053 37 ft 11 kts 225°
2026-05-06 17:42 3.63959 98.88000 36 ft 11 kts 224°
2026-05-06 17:43 3.63908 98.87962 37 ft 8 kts 193°
2026-05-06 17:43 3.63860 98.87981 37 ft 8 kts 131°
2026-05-06 17:43 3.63823 98.88021 37 ft 8 kts 134°
2026-05-06 17:43 3.63785 98.88059 37 ft 8 kts 135°
2026-05-06 17:44 3.63747 98.88097 37 ft 8 kts 135°
2026-05-06 17:44 3.63708 98.88136 37 ft 8 kts 136°
2026-05-06 17:44 3.63670 98.88173 37 ft 8 kts 135°
2026-05-06 17:44 3.63631 98.88211 37 ft 8 kts 135°
2026-05-06 17:45 3.63604 98.88239 37 ft 2 kts 135°
2026-05-06 17:45 3.63595 98.88250 37 ft 2 kts 118°
2026-05-06 17:45 3.63601 98.88267 37 ft 3 kts 61°
2026-05-06 17:45 3.63614 98.88285 37 ft 4 kts 52°
2026-05-06 17:46 3.63633 98.88307 37 ft 5 kts 48°
2026-05-06 17:46 3.63656 98.88332 37 ft 5 kts 48°
2026-05-06 17:46 3.63683 98.88361 37 ft 6 kts 45°
2026-05-06 17:46 3.63712 98.88386 37 ft 2 kts 43°
2026-05-06 17:47 3.63720 98.88394 37 ft 0 kts 43°
2026-05-06 17:48 3.63736 98.88409 37 ft 7 kts 43°
2026-05-06 17:48 3.63770 98.88441 37 ft 7 kts 41°
2026-05-06 17:48 3.63814 98.88452 37 ft 7 kts 351°
2026-05-06 17:49 3.63853 98.88425 37 ft 7 kts 317°
2026-05-06 17:49 3.63888 98.88392 37 ft 7 kts 316°
2026-05-06 17:49 3.63922 98.88358 37 ft 7 kts 315°
2026-05-06 17:49 3.63967 98.88314 37 ft 11 kts 315°
2026-05-06 17:50 3.64020 98.88261 37 ft 11 kts 315°
2026-05-06 17:50 3.64073 98.88207 37 ft 11 kts 315°
2026-05-06 17:50 3.64093 98.88141 37 ft 11 kts 248°
2026-05-06 17:50 3.64045 98.88084 37 ft 11 kts 225°
2026-05-06 17:51 3.63991 98.88030 37 ft 11 kts 224°
2026-05-06 17:51 3.63939 98.87979 37 ft 8 kts 224°
2026-05-06 17:51 3.63896 98.87960 37 ft 4 kts 165°
2026-05-06 17:51 3.63868 98.87959 37 ft 5 kts 206°
2026-05-06 17:52 3.63842 98.87939 37 ft 5 kts 219°
2026-05-06 17:52 3.63828 98.87927 37 ft 2 kts 224°
2026-05-06 17:52 3.63837 98.87935 36 ft 0 kts 225°
2026-05-06 17:52 3.63823 98.87921 37 ft 2 kts 225°
2026-05-06 17:53 3.63820 98.87918 37 ft 0 kts 225°